Location: Unspecified
(41.1637°N, 24.2901°E)
Time: 12:16:56
(UTC+02:00)

ISS - Pass Details

Date: 14 May 2026
Orbit: 414 x 424 km, 51.6° (Epoch: 12 May)

Event Time Altitude Azimuth Distance (km) Brightness Sun altitude
Rises 20:57:44 0° 286° (WNW) 2,349 1.3 -14.1°
Reaches altitude 10° 21:00:27 10° 310° (NW) 1,488 0.5 -14.4°
Maximum altitude 21:02:33 16° 349° (N) 1,194 -0.7 -14.7°
Drops below altitude 10° 21:04:41 10° 29° (NNE) 1,491 -0.8 -15.0°
Sets 21:07:24 0° 53° (NE) 2,356 0.0 -15.4°
